DW0893 Weather Reports


Display with metric or nautical units.
time (UTC)temp
F
wind
direction
speed
MPH
gust
MPH
rain 1hr
in
rain 24hr
in
rain mn
in
humidity
%
barometer
mb
20260507075553 49 49 1.0 4.0 0.00 0.00 0.00 94 1016.3
20260507075056 48 0 0.0 3.0 0.00 0.00 0.00 95 1016.4
20260507074558 47 32 0.0 2.0 0.00 0.00 0.00 95 1016.4
20260507074058 47 0 0.0 3.0 0.00 0.00 0.00 95 1016.4
20260507073600 46 0 0.0 3.0 0.00 0.00 0.00 95 1016.4
20260507073101 45 0 0.0 2.0 0.00 0.00 0.00 96 1016.4
20260507072556 44 0 0.0 4.0 0.00 0.00 0.00 95 1016.4
20260507072056 43 0 1.0 4.0 0.00 0.00 0.00 95 1016.4
20260507071555 42 30 0.0 2.0 0.00 0.00 0.00 95 1016.3
20260507071056 42 0 0.0 1.0 0.00 0.00 0.00 95 1016.4
20260507070558 41 0 0.0 1.0 0.00 0.00 0.00 95 1016.4
20260507070105 41 0 0.0 1.0 0.00 0.00 0.00 94 1016.4
20260507065558 40 0 0.0 0.0 0.00 0.00 0.00 94 1016.3
20260507065055 40 0 0.0 0.0 0.00 0.00 0.00 94 1016.3
20260507064558 40 0 0.0 0.0 0.00 0.00 0.00 94 1016.4
20260507064057 40 0 0.0 0.0 0.00 0.00 0.00 94 1016.4
20260507063557 39 0 0.0 0.0 0.00 0.00 0.00 94 1016.4
20260507063057 39 0 0.0 1.0 0.00 0.00 0.00 94 1016.4
20260507062556 38 0 0.0 1.0 0.00 0.00 0.00 94 1016.4
20260507062056 38 0 0.0 1.0 0.00 0.00 0.00 93 1016.3
20260507061559 38 0 0.0 1.0 0.00 0.00 0.00 93 1016.4
20260507061057 38 0 0.0 1.0 0.00 0.00 0.00 93 1016.3
20260507060559 38 0 0.0 1.0 0.00 0.00 0.00 93 1016.3
20260507060104 37 0 0.0 1.0 0.00 0.00 0.00 93 1016.4
20260507055558 37 0 0.0 2.0 0.00 0.00 0.00 92 1016.2
20260507055059 37 0 0.0 2.0 0.00 0.00 0.00 92 1016.2
20260507054558 37 0 0.0 2.0 0.00 0.00 0.00 92 1016.2
20260507054101 37 0 0.0 2.0 0.00 0.00 0.00 92 1016.0
20260507053559 36 0 0.0 2.0 0.00 0.00 0.00 91 1016.0
20260507053058 36 37 0.0 2.0 0.00 0.00 0.00 91 1016.0
20260507052559 36 0 0.0 2.0 0.00 0.00 0.00 91 1015.9
20260507052059 36 0 0.0 0.0 0.00 0.00 0.00 90 1015.8
20260507051559 36 0 0.0 0.0 0.00 0.00 0.00 90 1015.9
20260507051057 36 0 0.0 0.0 0.00 0.00 0.00 90 1015.8
20260507050601 36 0 0.0 0.0 0.00 0.00 0.00 90 1015.9
20260507050059 36 0 0.0 0.0 0.00 0.00 0.00 89 1015.9
20260507045601 36 0 0.0 0.0 0.00 0.00 0.00 89 1015.8
20260507045059 36 0 0.0 0.0 0.00 0.00 0.00 89 1015.9
20260507044610 36 0 0.0 0.0 0.00 0.00 0.00 89 1015.7
20260507044058 36 0 0.0 0.0 0.00 0.00 0.00 89 1015.8
20260507043558 36 0 0.0 0.0 0.00 0.00 0.00 89 1015.8
20260507043118 36 0 0.0 0.0 0.00 0.00 0.00 89 1015.8
20260507042559 36 0 0.0 0.0 0.00 0.00 0.00 89 1015.7
20260507042058 37 0 0.0 0.0 0.00 0.00 0.00 89 1015.7
20260507041604 37 0 0.0 0.0 0.00 0.00 0.00 89 1015.8
20260507041059 37 0 0.0 0.0 0.00 0.00 0.00 89 1015.8
20260507040559 37 0 0.0 0.0 0.00 0.00 0.00 89 1015.8
20260507040059 37 0 0.0 0.0 0.00 0.00 0.00 89 1016.0
20260507035558 37 0 0.0 0.0 0.00 0.00 0.00 89 1015.9
20260507035059 37 0 0.0 0.0 0.00 0.00 0.00 89 1015.8
20260507034559 37 0 0.0 0.0 0.00 0.00 0.00 89 1015.7
20260507034058 38 0 0.0 0.0 0.00 0.00 0.00 89 1015.7
20260507033554 38 0 0.0 0.0 0.00 0.00 0.00 89 1015.7
20260507033056 38 0 0.0 0.0 0.00 0.00 0.00 89 1015.8
20260507032559 38 0 0.0 0.0 0.00 0.00 0.00 89 1015.8
20260507032057 38 0 0.0 0.0 0.00 0.00 0.00 89 1015.7
20260507031557 38 0 0.0 0.0 0.00 0.00 0.00 89 1015.7
20260507031058 38 0 0.0 0.0 0.00 0.00 0.00 89 1015.7
20260507030557 38 0 0.0 0.0 0.00 0.00 0.00 89 1015.7
20260507030057 38 0 0.0 0.0 0.00 0.00 0.00 89 1015.7
20260507025553 38 0 0.0 1.0 0.00 0.00 0.00 88 1015.7
20260507025059 39 0 0.0 1.0 0.00 0.00 0.00 88 1015.7
20260507024557 39 0 0.0 2.0 0.00 0.00 0.00 88 1015.7
20260507024055 39 0 0.0 2.0 0.00 0.00 0.00 88 1015.7
20260507023554 39 0 0.0 1.0 0.00 0.00 0.00 88 1015.6
20260507023108 39 0 0.0 1.0 0.00 0.00 0.00 87 1015.7
20260507022554 39 0 0.0 1.0 0.00 0.00 0.00 87 1015.7
20260507022056 39 0 0.0 1.0 0.00 0.00 0.00 87 1015.7
20260507021555 39 0 0.0 1.0 0.00 0.00 0.00 87 1015.7
20260507021054 39 0 0.0 1.0 0.00 0.00 0.00 86 1015.7
20260507020557 40 0 0.0 0.0 0.00 0.00 0.00 86 1015.6
20260507020103 40 0 0.0 0.0 0.00 0.00 0.00 86 1015.6
20260507015557 40 0 0.0 0.0 0.00 0.00 0.00 86 1015.6
20260507015057 40 0 0.0 0.0 0.00 0.00 0.00 86 1015.5
20260507014558 40 0 0.0 0.0 0.00 0.00 0.00 86 1015.6
20260507014055 40 0 0.0 0.0 0.00 0.00 0.00 85 1015.6
20260507013558 40 0 0.0 0.0 0.00 0.00 0.00 85 1015.5
20260507013057 41 0 0.0 0.0 0.00 0.00 0.00 85 1015.4
20260507012556 41 0 0.0 0.0 0.00 0.00 0.00 84 1015.5
20260507012055 41 0 0.0 0.0 0.00 0.00 0.00 84 1015.6
20260507011555 41 0 0.0 0.0 0.00 0.00 0.00 84 1015.5
20260507011054 41 0 0.0 0.0 0.00 0.00 0.00 84 1015.5
20260507010556 41 0 0.0 0.0 0.00 0.00 0.00 84 1015.5
20260507010057 41 0 0.0 0.0 0.00 0.00 0.00 84 1015.6
20260507005556 42 0 0.0 0.0 0.00 0.00 0.00 83 1015.5
20260507005101 42 0 0.0 0.0 0.00 0.00 0.00 84 1015.5
20260507004556 42 0 0.0 0.0 0.00 0.00 0.00 84 1015.5
20260507004055 42 0 0.0 0.0 0.00 0.00 0.00 83 1015.6
20260507003557 42 0 0.0 0.0 0.00 0.00 0.00 83 1015.5
20260507003111 42 0 0.0 0.0 0.00 0.00 0.00 83 1015.6
20260507002557 43 0 0.0 0.0 0.00 0.00 0.00 82 1015.5
20260507002055 43 0 0.0 0.0 0.00 0.00 0.00 81 1015.7
20260507001615 43 0 0.0 0.0 0.00 0.00 0.00 81 1015.7
20260507001056 43 0 0.0 0.0 0.00 0.00 0.00 81 1015.6
20260507000559 43 0 0.0 0.0 0.00 0.00 0.00 81 1015.7
20260507000058 44 0 0.0 0.0 0.00 0.00 0.00 81 1015.5
20260506235555 44 0 0.0 1.0 0.00 0.00 0.00 80 1015.7
20260506235054 44 0 0.0 1.0 0.00 0.00 0.00 80 1015.6
20260506234557 44 0 0.0 1.0 0.00 0.00 0.00 80 1015.6
20260506234058 44 0 0.0 0.0 0.00 0.00 0.00 79 1015.5
20260506233602 45 0 0.0 1.0 0.00 0.00 0.00 79 1015.4
20260506233101 45 0 0.0 1.0 0.00 0.00 0.00 78 1015.4
20260506232557 45 0 0.0 1.0 0.00 0.00 0.00 78 1015.4
20260506232056 45 0 0.0 0.0 0.00 0.00 0.00 78 1015.3
20260506231606 46 0 0.0 1.0 0.00 0.00 0.00 78 1015.4
20260506231057 46 0 0.0 1.0 0.00 0.00 0.00 78 1015.3
20260506230557 46 0 0.0 1.0 0.00 0.00 0.00 77 1015.4
20260506230113 46 0 0.0 1.0 0.00 0.00 0.00 77 1015.2
20260506225558 47 0 0.0 0.0 0.00 0.00 0.00 77 1015.3
20260506225057 47 0 0.0 1.0 0.00 0.00 0.00 77 1015.3
20260506224554 47 0 0.0 2.0 0.00 0.00 0.00 75 1015.3
20260506224100 47 0 0.0 2.0 0.00 0.00 0.00 75 1015.3
20260506223558 48 0 0.0 1.0 0.00 0.00 0.00 74 1015.4
20260506223057 48 0 0.0 3.0 0.00 0.00 0.00 75 1015.3
20260506222557 48 0 0.0 3.0 0.00 0.00 0.00 74 1015.4
20260506222059 48 0 0.0 3.0 0.00 0.00 0.00 74 1015.3
20260506221609 48 0 0.0 2.0 0.00 0.00 0.00 73 1015.3
20260506221054 49 0 0.0 2.0 0.00 0.00 0.00 73 1015.2
20260506220554 49 0 0.0 2.0 0.00 0.00 0.00 72 1015.2
20260506220100 49 0 0.0 3.0 0.00 0.00 0.00 72 1015.1
20260506215602 49 0 0.0 3.0 0.00 0.00 0.00 72 1015.0
20260506215100 49 0 0.0 3.0 0.00 0.00 0.00 71 1015.1
20260506214557 50 39 0.0 5.0 0.00 0.00 0.00 71 1015.1
20260506214057 50 39 0.0 6.0 0.00 0.00 0.00 71 1015.0
20260506213559 50 0 1.0 6.0 0.00 0.00 0.00 70 1015.1
20260506213059 50 0 1.0 6.0 0.00 0.00 0.00 70 1015.1
20260506212557 50 47 1.0 6.0 0.00 0.00 0.00 69 1015.1
20260506212100 50 41 2.0 6.0 0.00 0.00 0.00 69 1015.0
20260506211556 51 34 2.0 5.0 0.00 0.00 0.00 69 1015.0
20260506211057 51 34 1.0 5.0 0.00 0.00 0.00 68 1015.0
20260506210557 51 32 1.0 5.0 0.00 0.00 0.00 67 1015.0
20260506210058 51 0 1.0 5.0 0.00 0.00 0.00 67 1015.0
20260506205558 51 31 1.0 6.0 0.00 0.00 0.00 67 1014.9
20260506205054 51 0 3.0 7.0 0.00 0.00 0.00 66 1014.9
20260506204601 51 41 1.0 7.0 0.00 0.00 0.00 65 1014.8
20260506204054 51 41 1.0 5.0 0.00 0.00 0.00 65 1014.9
20260506203554 51 22 0.0 5.0 0.00 0.00 0.00 65 1014.8
20260506203120 51 0 1.0 5.0 0.00 0.00 0.00 64 1014.7
20260506202557 51 0 1.0 5.0 0.00 0.00 0.00 64 1014.8
20260506202054 51 0 1.0 3.0 0.00 0.00 0.00 64 1014.8
20260506201554 51 0 0.0 6.0 0.00 0.00 0.00 64 1014.6
20260506201057 51 0 0.0 6.0 0.00 0.00 0.00 64 1014.6
20260506200601 52 0 2.0 6.0 0.00 0.00 0.00 64 1014.6
20260506195557 52 25 1.0 5.0 0.00 0.00 0.00 63 1014.6
20260506195058 52 0 2.0 5.0 0.00 0.00 0.00 63 1014.4
20260506194555 52 22 1.0 8.0 0.00 0.00 0.00 63 1014.3
20260506194058 52 0 3.0 8.0 0.00 0.00 0.00 63 1014.2
20260506193553 52 16 1.0 5.0 0.00 0.00 0.00 63 1014.2
20260506193104 52 7 2.0 7.0 0.00 0.00 0.00 63 1014.1
20260506192554 52 8 3.0 7.0 0.00 0.00 0.00 63 1014.2
20260506192056 52 18 1.0 5.0 0.00 0.00 0.00 63 1014.0
20260506191557 53 0 1.0 5.0 0.00 0.00 0.00 63 1014.0
20260506191054 53 20 2.0 5.0 0.00 0.00 0.00 62 1014.0
20260506190559 53 0 0.0 6.0 0.00 0.00 0.00 62 1014.1
20260506190055 53 0 0.0 6.0 0.00 0.00 0.00 62 1014.0
20260506185557 53 14 1.0 5.0 0.00 0.00 0.00 62 1013.9
20260506185057 53 16 1.0 5.0 0.00 0.00 0.00 61 1014.0
20260506184556 53 13 2.0 8.0 0.00 0.00 0.00 61 1013.9
20260506184057 53 7 2.0 8.0 0.00 0.00 0.00 61 1013.9
20260506183601 53 5 1.0 8.0 0.00 0.00 0.00 60 1013.9
20260506183104 53 5 2.0 8.0 0.00 0.00 0.00 60 1013.8
20260506182557 54 20 2.0 8.0 0.00 0.00 0.00 60 1013.9
20260506182056 54 16 2.0 7.0 0.00 0.00 0.00 60 1013.6
20260506181601 54 355 2.0 7.0 0.00 0.00 0.00 59 1013.7
20260506181055 54 9 2.0 8.0 0.00 0.00 0.00 60 1013.7
20260506180555 54 0 2.0 10.0 0.00 0.00 0.00 59 1013.7
20260506180058 54 7 3.0 10.0 0.00 0.00 0.00 59 1013.5
20260506175554 54 25 3.0 10.0 0.00 0.00 0.00 59 1013.4
20260506175101 54 19 3.0 9.0 0.00 0.00 0.00 59 1013.4
20260506174558 54 0 3.0 9.0 0.00 0.00 0.00 59 1013.5
20260506174057 54 355 4.0 9.0 0.00 0.00 0.00 59 1013.3
20260506173557 55 14 3.0 9.0 0.00 0.00 0.00 59 1013.4
20260506173109 55 342 3.0 9.0 0.00 0.00 0.00 59 1013.3
20260506172557 55 14 2.0 10.0 0.00 0.00 0.00 59 1013.3
20260506172056 55 7 4.0 10.0 0.00 0.00 0.00 59 1013.2
20260506171559 55 0 3.0 10.0 0.00 0.00 0.00 59 1013.2
20260506171056 55 7 3.0 8.0 0.00 0.00 0.00 59 1013.2
20260506170556 55 20 2.0 7.0 0.00 0.00 0.00 58 1013.2
20260506170108 56 34 3.0 7.0 0.00 0.00 0.00 57 1013.2
20260506165556 56 41 1.0 7.0 0.00 0.00 0.00 57 1013.1
20260506165056 56 41 2.0 7.0 0.00 0.00 0.00 57 1013.1
20260506164620 56 41 1.0 8.0 0.00 0.00 0.00 56 1013.0
20260506164056 56 51 2.0 8.0 0.00 0.00 0.00 56 1013.0
20260506163557 56 51 2.0 8.0 0.00 0.00 0.00 54 1013.0
20260506163111 56 84 2.0 8.0 0.00 0.00 0.00 55 1013.0
20260506162556 56 83 2.0 10.0 0.00 0.00 0.00 55 1013.1
20260506162056 56 33 2.0 10.0 0.00 0.00 0.00 56 1013.1
20260506161556 56 53 3.0 10.0 0.00 0.00 0.00 56 1012.9
20260506161100 56 47 3.0 10.0 0.00 0.00 0.00 57 1013.1
20260506160556 56 3 1.0 8.0 0.00 0.00 0.00 57 1013.0
20260506160122 56 0 2.0 9.0 0.00 0.00 0.00 57 1013.2
20260506155556 56 18 3.0 10.0 0.00 0.00 0.00 57 1013.1
20260506155056 56 14 4.0 10.0 0.00 0.00 0.00 57 1013.2
20260506154600 56 336 3.0 9.0 0.00 0.00 0.00 58 1013.1
20260506154056 56 14 3.0 11.0 0.00 0.00 0.00 59 1013.2
20260506153558 56 34 5.0 11.0 0.00 0.00 0.00 59 1013.1
20260506153056 56 355 4.0 11.0 0.00 0.00 0.00 58 1013.2
20260506152557 56 330 3.0 11.0 0.00 0.00 0.00 59 1013.2
20260506152101 56 40 3.0 11.0 0.00 0.00 0.00 58 1013.3
20260506151604 56 49 5.0 11.0 0.00 0.00 0.00 57 1013.3
20260506151057 56 350 2.0 9.0 0.00 0.00 0.00 56 1013.1
20260506150556 56 37 3.0 8.0 0.00 0.00 0.00 56 1013.1
20260506150104 56 64 1.0 9.0 0.00 0.00 0.00 57 1013.2
20260506145557 56 68 4.0 9.0 0.00 0.00 0.00 57 1013.2
20260506145057 56 30 1.0 10.0 0.00 0.00 0.00 56 1013.2
20260506144557 56 28 2.0 12.0 0.00 0.00 0.00 57 1013.4
20260506144056 56 38 4.0 13.0 0.00 0.00 0.00 56 1013.4
20260506143556 57 26 6.0 13.0 0.00 0.00 0.00 56 1013.3
20260506143056 57 30 5.0 12.0 0.00 0.00 0.00 55 1013.3
20260506142556 57 55 5.0 10.0 0.00 0.00 0.00 53 1013.2
20260506142055 57 14 4.0 12.0 0.00 0.00 0.00 55 1013.1
20260506141555 57 0 2.0 12.0 0.00 0.00 0.00 55 1013.1
20260506141056 57 73 2.0 11.0 0.00 0.00 0.00 55 1013.3
20260506140558 57 72 5.0 13.0 0.00 0.00 0.00 54 1013.3
20260506140059 57 12 5.0 16.0 0.00 0.00 0.00 53 1013.3
20260506135556 58 342 8.0 16.0 0.00 0.00 0.00 53 1013.3
20260506135056 58 39 5.0 17.0 0.00 0.00 0.00 52 1013.3
20260506134556 58 46 5.0 17.0 0.00 0.00 0.00 50 1013.2
20260506134059 58 66 6.0 17.0 0.00 0.00 0.00 51 1013.3
20260506133556 58 37 4.0 12.0 0.00 0.00 0.00 52 1013.1
20260506133108 58 42 5.0 12.0 0.00 0.00 0.00 51 1013.3
20260506132558 58 34 2.0 14.0 0.00 0.00 0.00 50 1013.3
20260506132058 58 336 4.0 14.0 0.00 0.00 0.00 49 1013.2
20260506131614 58 26 5.0 14.0 0.00 0.00 0.00 51 1013.1
20260506131056 57 57 2.0 13.0 0.00 0.00 0.00 53 1013.1
20260506130556 57 336 6.0 13.0 0.00 0.00 0.00 53 1013.3
20260506130057 57 328 2.0 13.0 0.00 0.00 0.00 53 1013.3
20260506125556 58 31 6.0 12.0 0.00 0.00 0.00 51 1013.3
20260506125056 58 30 3.0 11.0 0.00 0.00 0.00 51 1013.4
20260506124559 58 66 5.0 12.0 0.00 0.00 0.00 50 1013.3
20260506124056 58 45 3.0 12.0 0.00 0.00 0.00 51 1013.3
20260506123556 58 73 5.0 12.0 0.00 0.00 0.00 50 1013.3
20260506123057 58 19 5.0 10.0 0.00 0.00 0.00 51 1013.2
20260506122556 58 61 1.0 11.0 0.00 0.00 0.00 51 1013.3
20260506122056 58 61 4.0 13.0 0.00 0.00 0.00 53 1013.3
20260506121558 57 26 6.0 14.0 0.00 0.00 0.00 52 1013.3
20260506121056 57 65 7.0 14.0 0.00 0.00 0.00 52 1013.3
20260506120556 57 342 7.0 12.0 0.00 0.00 0.00 52 1013.3
20260506120104 57 20 5.0 12.0 0.00 0.00 0.00 51 1013.4
20260506115557 57 26 4.0 14.0 0.00 0.00 0.00 52 1013.4
20260506115057 57 29 8.0 14.0 0.00 0.00 0.00 51 1013.4
20260506114555 57 45 5.0 14.0 0.00 0.00 0.00 52 1013.5
20260506114101 57 355 6.0 14.0 0.00 0.00 0.00 52 1013.5
20260506113556 57 12 5.0 18.0 0.00 0.00 0.00 51 1013.4
20260506113056 58 24 7.0 18.0 0.00 0.00 0.00 52 1013.5
20260506112557 58 70 5.0 12.0 0.00 0.00 0.00 50 1013.5
20260506112059 58 56 3.0 13.0 0.00 0.00 0.00 50 1013.5
20260506111558 58 342 6.0 13.0 0.00 0.00 0.00 50 1013.5
20260506111056 57 53 6.0 12.0 0.00 0.00 0.00 50 1013.6
20260506110557 57 25 4.0 15.0 0.00 0.00 0.00 53 1013.4
20260506110112 57 18 7.0 15.0 0.00 0.00 0.00 53 1013.5
20260506105557 57 18 2.0 13.0 0.00 0.00 0.00 59 1013.5
20260506105056 57 10 6.0 13.0 0.00 0.00 0.00 58 1013.6
20260506104612 57 309 5.0 12.0 0.00 0.00 0.00 57 1013.6
20260506104056 57 22 4.0 14.0 0.00 0.00 0.00 57 1013.5
20260506103557 57 19 7.0 14.0 0.00 0.00 0.00 57 1013.7
20260506103055 56 4 4.0 12.0 0.00 0.00 0.00 57 1013.6
20260506102558 56 5 6.0 13.0 0.00 0.00 0.00 58 1013.7
20260506102059 56 52 4.0 13.0 0.00 0.00 0.00 58 1013.7
20260506101558 55 32 5.0 13.0 0.00 0.00 0.00 57 1013.7
20260506101057 55 7 5.0 13.0 0.00 0.00 0.00 57 1013.6
20260506100557 55 33 8.0 13.0 0.00 0.00 0.00 56 1013.7
20260506100111 55 47 6.0 13.0 0.00 0.00 0.00 55 1013.6
20260506095557 55 64 6.0 13.0 0.00 0.00 0.00 55 1013.7
20260506095057 55 22 8.0 13.0 0.00 0.00 0.00 56 1013.7
20260506094601 55 36 5.0 13.0 0.00 0.00 0.00 57 1013.8
20260506094058 55 26 4.0 12.0 0.00 0.00 0.00 59 1013.6
20260506093554 55 355 5.0 12.0 0.00 0.00 0.00 58 1013.5
20260506093101 54 0 5.0 13.0 0.00 0.00 0.00 59 1013.6
20260506092559 54 350 5.0 15.0 0.00 0.00 0.00 59 1013.6
20260506092059 54 44 6.0 15.0 0.00 0.00 0.00 59 1013.6
20260506091556 54 30 7.0 13.0 0.00 0.00 0.00 60 1013.6
20260506091057 54 45 4.0 14.0 0.00 0.00 0.00 61 1013.6
20260506090553 54 32 6.0 14.0 0.00 0.00 0.00 62 1013.7
20260506090059 53 29 6.0 13.0 0.00 0.00 0.00 64 1013.6
20260506085554 53 337 4.0 14.0 0.00 0.00 0.00 63 1013.7
20260506085057 53 31 5.0 14.0 0.00 0.00 0.00 64 1013.7
20260506084622 53 355 6.0 14.0 0.00 0.00 0.00 65 1013.7
20260506084054 53 319 4.0 13.0 0.00 0.00 0.00 65 1013.6
20260506083555 53 359 5.0 13.0 0.00 0.00 0.00 66 1013.6
20260506083058 53 340 5.0 11.0 0.00 0.00 0.00 68 1013.7
20260506082600 52 34 4.0 9.0 0.00 0.00 0.00 69 1013.8
20260506082055 52 22 3.0 12.0 0.00 0.00 0.00 70 1013.7
20260506081600 51 19 3.0 12.0 0.00 0.00 0.00 71 1013.6
20260506081056 50 342 6.0 12.0 0.00 0.00 0.00 71 1013.7
20260506080557 50 34 4.0 11.0 0.00 0.00 0.00 72 1013.7